Flag for U.S.A. Weather past 2 weeks in Providence, Rhode Island, U.S.A.

Now
37 °F

Partly sunny.


Feels Like: 29 °F
Forecast: 18 / 36 °F
Wind: 13 mph from West

Location: Green State Airport

Current Time: Jan 25, 2015 at 11:21:06 AM

Latest Report: Jan 25, 2015 at 10:51 AM


Visibility: 10 mi

Pressure: 29.64 "Hg

Humidity: 62%

Dew point: 25 °F

Location of ProvidenceLocation

Historic Weather in Providence — Graph

°F

Providence temperature yesterday

Maximum temperature yesterday: 35 °F (at 2:51 AM)
Minimum temperature yesterday: 32 °F (at 4:51 AM)
Average temperature yesterday: 33 °F

Past Weeks' High & Low Weather Summary

 TemperatureHumidityPressure
High52 °F (Jan 18, 6:51 PM)97% (Jan 12, 2:51 PM)30.68 "Hg (Jan 12, 2:51 PM)
Low11 °F (Jan 11, 3:51 AM)22% (Jan 17, 1:51 PM)29.13 "Hg (Jan 24, 4:51 PM)
Average29 °F63%30.09 "Hg
* Reported Jan 10 9:51 AM — Jan 25 9:51 AM, Providence, Weather by CustomWeather, © 2014

Note: Actual official high and low records may vary slightly from our data, if they occured in-between our weather recording intervals... More about our weather records

Advertising

Providence weather history for previous 24 hours

 ConditionsComfort  
Time TempWeatherWind HumidityBarometerVisibility
9:51 AM
Jan 25
36 °FScattered clouds.13 mph70%29.63 "Hg10 mi
8:51 AM34 °FOvercast.10 mph73%29.60 "Hg10 mi
7:51 AM32 °FPartly sunny.10 mph79%29.58 "Hg10 mi
6:51 AM30 °FPassing clouds.15 mph79%29.54 "Hg10 mi
5:51 AM31 °FPassing clouds.15 mph76%29.51 "Hg10 mi
4:51 AM32 °FPassing clouds.16 mph75%29.48 "Hg10 mi
3:51 AM32 °FPassing clouds.14 mph75%29.45 "Hg10 mi
2:51 AM32 °FPassing clouds.13 mph75%29.43 "Hg10 mi
1:51 AM31 °FClear.12 mph79%29.40 "Hg10 mi
12:51 AM32 °FOvercast.14 mph79%29.36 "Hg10 mi
11:51 PM
Jan 24
32 °FClear.9 mph79%29.33 "Hg10 mi
10:51 PM33 °FClear.9 mph78%29.31 "Hg10 mi
9:51 PM34 °FPassing clouds.10 mph85%29.28 "Hg10 mi
8:51 PM34 °FMostly cloudy.7 mph88%29.26 "Hg10 mi
7:51 PM33 °FLight snow. Fog.10 mph92%29.24 "Hg2 mi
6:51 PM33 °FLight snow. Fog.10 mph92%29.23 "Hg1 mi
6:02 PM33 °FSleet. Fog.13 mph88%29.20 "Hg2 mi
5:51 PM33 °FLight snow. Fog.12 mph88%29.20 "Hg2 mi
4:51 PM33 °FDrizzle. Fog.20 mph88%29.13 "Hg3 mi
4:03 PM33 °FDrizzle. Fog.17 mph92%29.16 "Hg2 mi
3:51 PM33 °FLight rain. Fog.18 mph92%29.17 "Hg1 mi
2:51 PM33 °FLight rain. Fog.16 mph92%29.21 "Hg1 mi
1:51 PM34 °FLight rain. Fog.15 mph92%29.28 "Hg1 mi
12:51 PM34 °FLight rain. Fog.17 mph92%29.31 "Hg1 mi
11:51 AM33 °FLight rain. Fog.14 mph92%29.41 "Hg1 mi
Weather by CustomWeather, © 2014

See weather overviewHow to use our weather pages